Location: Miles
(41.4492°N, 81.6087°W)
Time: 13:38:31
(UTC+00:00)

Courier 1B - Pass Details

Date: 18 September 2024
Orbit: 962 x 1208 km, 28.3° (Epoch: 06 October)

Event Time Altitude Azimuth Distance (km) Brightness Sun altitude
Rises 19:31:04 0° 242° (WSW) 3,813 11.4 40.3°
Reaches altitude 10° 19:34:07 10° 231° (SW) 2,899 11.2 39.9°
Maximum altitude 19:40:02 28° 175° (S) 1,935 9.9 39.1°
Drops below altitude 10° 19:46:14 10° 120° (ESE) 3,051 10.0 38.2°
Sets 19:49:32 0° 109° (ESE) 4,046 10.5 37.8°
